Change the Weather History Date:

Monday, January 30, 2012

  Actual Average Record
Temperature  
Mean Temperature 21 °F -  
Max Temperature 27 °F 34 °F 33 °F (2013)
Min Temperature 15 °F 22 °F 1 °F (2008)
Degree Days  
Heating Degree Days 44    
Moisture  
Dew Point 16 °F    
Average Humidity 77    
Maximum Humidity 91    
Minimum Humidity 64    
Precipitation  
Precipitation 0.00 in - - ()
Sea Level Pressure  
Sea Level Pressure 30.02 in    
Wind  
Wind Speed 9 mph (SE)    
Max Wind Speed 14 mph    
Max Gust Speed 21 mph    
Visibility 9 miles    
Events Snow    
Averages and records for this station are not official NWS values.
T = Trace of Precipitation, MM = Missing Value Source: NWS Daily Summary

Daily Weather History Graph

Daily Weather History Graph

Search for Another Location

Airport or City:

Trip Planner

Search our weather history database for the weather conditions in past years. The results will help you decide how hot, cold, wet, or windy it might be!

Date:

Astronomy

Jan. 30, 2012 Rise Set
Actual Time 8:04 AM EST 5:44 PM EST
Civil Twilight 7:32 AM EST 6:16 PM EST
Nautical Twilight 6:57 AM EST 6:51 PM EST
Astronomical Twilight 6:22 AM EST 7:26 PM EST
Moon 11:02 AM EST (1/30) 12:51 AM EST (1/30)
Length of Visible Light 10h 43m
Length of Day
9h 40m
Waxing Crescent, 46% of the Moon is Illuminated
Jan 30
Waxing Crescent
Jan 30
First Quarter
Feb 7
Full
Feb 14
Last Quarter
Feb 21
New

Hourly Weather History & Observations

Time (EST) Temp. Windchill Dew Point Humidity Pressure Visibility Wind Dir Wind Speed Gust Speed Precip Events Conditions
12:34 AM 21.2 °F 9.5 °F 11.3 °F 66% 30.13 in 10.0 mi West 11.5 mph 20.7 mph N/A   Overcast
12:54 AM 20.8 °F 9.0 °F 11.7 °F 68% 30.13 in 10.0 mi West 11.5 mph - N/A   Overcast
1:14 AM 19.9 °F 8.6 °F 10.0 °F 65% 30.13 in 10.0 mi West 10.4 mph - N/A   Overcast
1:34 AM 20.3 °F 9.0 °F 10.0 °F 65% 30.13 in 10.0 mi West 10.4 mph 17.3 mph N/A   Mostly Cloudy
1:54 AM 20.3 °F 9.0 °F 11.1 °F 68% 30.14 in 10.0 mi West 10.4 mph - N/A   Mostly Cloudy
2:14 AM 19.8 °F 7.1 °F 10.0 °F 66% 30.14 in 10.0 mi West 12.7 mph - N/A   Mostly Cloudy
2:34 AM 19.4 °F 8.6 °F 9.1 °F 64% 30.14 in 10.0 mi West 9.2 mph - N/A   Scattered Clouds
2:55 AM 18.3 °F 7.3 °F 8.6 °F 66% 30.14 in 10.0 mi West 9.2 mph - N/A   Clear
3:14 AM 19.4 °F 7.2 °F 9.1 °F 64% 30.14 in 10.0 mi West 11.5 mph - N/A   Scattered Clouds
3:34 AM 20.1 °F 8.8 °F 10.8 °F 67% 30.14 in 10.0 mi West 10.4 mph - N/A   Mostly Cloudy
3:55 AM 20.8 °F 12.1 °F 12.0 °F 69% 30.14 in 10.0 mi West 6.9 mph - N/A   Overcast
4:14 AM 21.2 °F 10.9 °F 12.2 °F 68% 30.13 in 10.0 mi West 9.2 mph - N/A   Overcast
4:34 AM 21.2 °F 13.6 °F 11.7 °F 67% 30.12 in 10.0 mi WSW 5.8 mph - N/A   Overcast
4:55 AM 21.0 °F - 12.0 °F 68% 30.12 in 10.0 mi Calm Calm - N/A   Overcast
5:14 AM 20.7 °F 15.8 °F 11.8 °F 69% 30.12 in 10.0 mi SSW 3.5 mph - N/A   Mostly Cloudy
5:34 AM 19.4 °F - 11.7 °F 72% 30.12 in 10.0 mi Calm Calm - N/A   Mostly Cloudy
5:54 AM 16.7 °F 8.3 °F 10.9 °F 78% 30.12 in 10.0 mi SSE 5.8 mph - N/A   Mostly Cloudy
6:14 AM 16.7 °F 9.6 °F 10.9 °F 78% 30.11 in 10.0 mi SE 4.6 mph - N/A   Mostly Cloudy
6:35 AM 16.5 °F 9.4 °F 10.2 °F 76% 30.11 in 10.0 mi SSE 4.6 mph - N/A   Scattered Clouds
6:54 AM 15.6 °F 8.3 °F 10.2 °F 79% 30.10 in 10.0 mi SE 4.6 mph - N/A   Scattered Clouds
7:14 AM 16.0 °F 10.4 °F 10.4 °F 79% 30.10 in 10.0 mi SE 3.5 mph - N/A   Scattered Clouds
7:35 AM 16.7 °F 9.6 °F 11.1 °F 79% 30.10 in 10.0 mi SE 4.6 mph - N/A   Mostly Cloudy
7:54 AM 17.1 °F 8.7 °F 11.3 °F 78% 30.10 in 10.0 mi SE 5.8 mph - N/A   Overcast
8:14 AM 17.6 °F 12.3 °F 11.7 °F 78% 30.10 in 10.0 mi SE 3.5 mph - N/A   Overcast
8:34 AM 18.1 °F 10.0 °F 11.8 °F 76% 30.10 in 10.0 mi SE 5.8 mph - N/A   Overcast
8:54 AM 18.3 °F 10.2 °F 12.0 °F 76% 30.09 in 10.0 mi SE 5.8 mph - N/A   Overcast
9:14 AM 18.9 °F 10.8 °F 12.2 °F 75% 30.09 in 10.0 mi SE 5.8 mph - N/A   Overcast
9:34 AM 19.6 °F 10.6 °F 12.9 °F 75% 30.08 in 10.0 mi SE 6.9 mph - N/A   Overcast
9:54 AM 20.5 °F 12.8 °F 13.3 °F 74% 30.08 in 10.0 mi SSE 5.8 mph - N/A   Overcast
10:14 AM 22.1 °F 12.8 °F 13.8 °F 70% 30.07 in 10.0 mi SSE 8.1 mph - N/A   Overcast
10:34 AM 22.5 °F 14.1 °F 14.7 °F 72% 30.08 in 7.0 mi SSE 6.9 mph 16.1 mph N/A   Overcast
11:14 AM 22.8 °F 12.9 °F 17.4 °F 80% 30.07 in 5.0 mi SSE 9.2 mph - N/A Snow Light Snow
11:34 AM 22.8 °F 10.9 °F 18.0 °F 82% 30.05 in 3.0 mi SSE 12.7 mph - N/A Snow Light Snow
11:54 AM 22.8 °F 13.6 °F 19.2 °F 86% 30.05 in 1.5 mi SE 8.1 mph - N/A Snow Light Snow
12:15 PM 22.8 °F 12.9 °F 19.4 °F 87% 30.03 in 2.0 mi SE 9.2 mph - N/A Snow Light Snow
12:34 PM 22.8 °F 12.9 °F 19.9 °F 89% 30.02 in 1.0 mi ESE 9.2 mph - N/A Snow Light Snow
12:54 PM 22.5 °F 15.1 °F 19.9 °F 90% 30.01 in 0.8 mi ESE 5.8 mph - N/A Snow Light Snow
1:14 PM 22.6 °F 14.3 °F 20.3 °F 91% 30.00 in 1.0 mi ESE 6.9 mph - N/A Snow Light Snow
1:34 PM 22.8 °F 12.9 °F 20.3 °F 90% 29.98 in 1.0 mi ESE 9.2 mph - N/A Snow Light Snow
1:54 PM 23.0 °F 13.1 °F 20.3 °F 89% 29.96 in 1.0 mi ESE 9.2 mph - N/A Snow Light Snow
2:14 PM 23.0 °F 13.9 °F 20.7 °F 91% 29.95 in 4.0 mi East 8.1 mph - N/A Snow Light Snow
2:34 PM 23.4 °F 15.2 °F 20.8 °F 90% 29.93 in 5.0 mi ESE 6.9 mph - N/A Snow Light Snow
3:14 PM 23.9 °F 14.2 °F 20.3 °F 86% 29.91 in 10.0 mi SE 9.2 mph - N/A   Overcast
3:34 PM 24.6 °F 14.4 °F 20.3 °F 84% 29.90 in 10.0 mi ESE 10.4 mph - N/A   Overcast
3:55 PM 25.3 °F 15.3 °F 19.9 °F 80% 29.89 in 10.0 mi ESE 10.4 mph 16.1 mph N/A   Overcast
4:14 PM 25.7 °F 14.0 °F 19.6 °F 78% 29.89 in 10.0 mi SE 13.8 mph - N/A   Overcast
4:34 PM 25.7 °F 15.7 °F 19.6 °F 78% 29.87 in 10.0 mi SE 10.4 mph - N/A   Overcast
4:55 PM 25.7 °F 15.7 °F 19.9 °F 79% 29.87 in 10.0 mi SE 10.4 mph - N/A   Overcast
5:14 PM 25.7 °F 15.7 °F 20.1 °F 79% 29.87 in 10.0 mi SE 10.4 mph 17.3 mph N/A   Overcast
5:34 PM 26.1 °F 16.2 °F 20.3 °F 79% 29.87 in 10.0 mi SE 10.4 mph - N/A   Overcast
5:55 PM 26.1 °F 15.6 °F 20.5 °F 79% 29.87 in 10.0 mi SE 11.5 mph - N/A   Overcast
6:14 PM 26.2 °F 16.4 °F 20.8 °F 80% 29.86 in 10.0 mi ESE 10.4 mph - N/A   Overcast
6:34 PM 26.2 °F 16.4 °F 21.0 °F 81% 29.87 in 10.0 mi SE 10.4 mph - N/A   Overcast
6:54 PM 26.6 °F 18.2 °F 21.2 °F 80% 29.87 in 10.0 mi SE 8.1 mph - N/A   Overcast
7:35 PM 26.6 °F 19.1 °F 21.6 °F 81% 29.88 in 10.0 mi ESE 6.9 mph - N/A   Overcast
7:54 PM 26.8 °F 19.3 °F 21.7 °F 81% 29.88 in 10.0 mi ESE 6.9 mph - N/A   Overcast
8:14 PM 26.8 °F 20.2 °F 21.7 °F 81% 29.87 in 10.0 mi ESE 5.8 mph - N/A   Overcast
8:34 PM 27.0 °F 19.5 °F 22.1 °F 82% 29.87 in 10.0 mi ESE 6.9 mph - N/A   Overcast
8:54 PM 27.0 °F 21.6 °F 22.1 °F 82% 29.87 in 10.0 mi ESE 4.6 mph - N/A   Overcast
9:15 PM 27.0 °F 19.5 °F 22.1 °F 82% 29.87 in 10.0 mi ESE 6.9 mph - N/A   Overcast
9:34 PM 27.1 °F 19.7 °F 22.6 °F 83% 29.86 in 10.0 mi SE 6.9 mph - N/A   Overcast
9:54 PM 27.1 °F 18.9 °F 22.6 °F 83% 29.85 in 10.0 mi SE 8.1 mph - N/A   Overcast
10:15 PM 27.5 °F 20.2 °F 22.8 °F 83% 29.84 in 10.0 mi SE 6.9 mph - N/A   Overcast
10:34 PM 27.5 °F 19.3 °F 23.0 °F 83% 29.84 in 10.0 mi SSE 8.1 mph - N/A   Overcast
10:54 PM 27.9 °F 19.1 °F 23.0 °F 82% 29.83 in 10.0 mi SSE 9.2 mph - N/A   Overcast
11:14 PM 27.7 °F 18.8 °F 23.0 °F 83% 29.83 in 10.0 mi SSE 9.2 mph - N/A   Overcast
11:34 PM 27.3 °F 20.9 °F 22.8 °F 83% 29.82 in 10.0 mi SSE 5.8 mph - N/A   Scattered Clouds
11:54 PM 27.0 °F 20.5 °F 22.6 °F 84% 29.83 in 10.0 mi SSE 5.8 mph - N/A   Clear